Weather Roundup
Issued by NWS Chicago, IL

Home | Current Version | Previous Version | Graphics & Text | Print | Product List | Glossary On
Versions: 1 2 3 4 5 6 7 8 9 10 11 12 13 14 15 16 17 18 19 20 21 22 23 24 25 26 27 28 29 30 31 32 33 34 35 36 37 38 39 40 41 42 43 44 45 46 47 48 49 50
605
NZUS59 KLOT 272008
HRRLOT

CHICAGO AREA WEATHER ROUNDUP
NATIONAL WEATHER SERVICE CHICAGO/ROMEOVILLE IL
300 PM CDT TUE SEP 27 2016

NOTE: "FAIR" INDICATES FEW OR NO CLOUDS BELOW 12,000 FEET WITH NO
SIGNIFICANT WEATHER AND/OR OBSTRUCTIONS TO VISIBILITY.

* THESE STATIONS ARE NOT UNDER NWS QUALITY CONTROL. THEY ALSO MAY NOT
  REPORT WEATHER SUCH AS PRECIPITATION OR FOG.

ILZ005-006-012>014-019>023-272100-
NORTHEAST ILLINOIS

CITY           SKY/WX    TMP DP  RH WIND       PRES   REMARKS
OHARE          PTSUNNY   68  34  28 W20G30    29.74F
MIDWAY         PTSUNNY   71  31  22 W17G26    29.75S
AURORA         CLOUDY    70  34  26 W23G31    29.76F
LANSING*       SUNNY     72  38  28 W21G28    29.76S
JOLIET*        SUNNY     73  31  21 W15G22    29.77S
WAUKEGAN       PTSUNNY   66  41  40 W8G21     29.72R
DUPAGE AIRPORT MOSUNNY   68  34  28 W18G28    29.75F
WHEELING       SUNNY     69  34  27 W15G23    29.74F
KANKAKEE*      SUNNY     73  27  18 W18G28    29.78F
MORRIS*        SUNNY     72  29  20 W16G29    29.76F
LEWIS AIRPORT* SUNNY     70  37  29 W15G26    29.76F
NORTHERLY ISL    N/A     68  30  24 W12         N/A
$$

WIZ051-052-058>065-066-070>072-272100-
SOUTHEAST WISCONSIN

CITY           SKY/WX    TMP DP  RH WIND       PRES   REMARKS
MILWAUKEE      CLOUDY    62  42  47 W17G25    29.73S
KENOSHA*       CLOUDY    64  42  44 W14       29.73R
RACINE*        CLOUDY    62  42  47 W10G23    29.74R
BURLINGTON     CLOUDY    65  39  39 W17G28    29.73R
WAUKESHA       CLOUDY    55  43  62 W17G23    29.74S
WEST BEND      CLOUDY    55  43  62 W15       29.72S
$$

INZ001>003-010>013-019-020-272100-
NORTHWEST INDIANA

CITY           SKY/WX    TMP DP  RH WIND       PRES   REMARKS
GARY*          MOSUNNY   72  28  20 W23       29.76F
MICHIGAN CITY* NOT AVBL
RENSSELAER*    NOT AVBL
VALPARAISO     SUNNY     71  33  24 W20G29    29.77S
$$

LMZ740>746-272100-
SOUTHERN LAKE MICHIGAN

STATION/POSITION TIME  SKY/WX   TEMP WIND        PRES    VSBY
                                AIR  DIR/SP/G
                 (UTC)          (F)  (DEG/KT/KT) (MB)    (MI)
HARRISON CRIB    1940            67  270/ 26/ 28   N/A
BURNHAM HARBOR   2000            69  300/  9/ 21   N/A
CALUMET HARBOR   1942            69  260/ 10/ 16 1007.1F
BURNS HARBOR     1940            67  260/ 21/ 24 1007.8F
MICHIGAN CITY    1940            66  230/ 23/ 25   N/A
$$

ABBREVIATIONS USED IN REMARKS
   TC - TEMPERATURE IN CELSIUS
  WCI - WIND CHILL INDEX
   HX - HEAT INDEX
  VSB - VISIBILITY
$$




USA.gov is the U.S. government's official web portal to all federal, state and local government web resources and services.